User: anonymous   Login
Location: Peebles
(55.6412°N, 3.1714°W)
Time: 23:14:12
(UTC+00:00)
Language:

Cosmos 1833 - Orbit

View from above orbital plane
View from above orbital plane
View from above satellite
View from above satellite

Ground track
Ground track

The orbit data is extracted from the following two-line orbital elements,

1 17589U 87027A   21331.37474178  .00000240  00000-0  15421-3 0  9997
2 17589  70.9162  11.5943 0021817  39.2971 320.9728 14.12889318789482
Epoch (UTC): 27 November 2021 08:59:37
Eccentricity: 0.0021817
inclination: 70.9162°
perigee height: 834 km
apogee height: 865 km
right ascension of ascending node: 11.5943°
argument of perigee: 39.2971°
revolutions per day: 14.12889318
mean anomaly at epoch: 320.9728°
orbit number at epoch: 78948

The dashed part of the orbit path shows where the satellite is in the earth's shadow,  

DLR